Time,TemperatureF,DewpointF,PressureIn,WindDirection,WindDirectionDegrees,WindSpeedMPH,WindSpeedGustMPH,Humidity,HourlyPrecipIn,Conditions,Clouds,dailyrainin,SoftwareType,DateUTC
2013-02-13 00:02:00,21.6,16.4,29.76,WNW,284,0.0,0.0,80,0.00,,BKN110,0.18,VWS V14.01,2013-02-13 06:02:00,
2013-02-13 00:12:00,21.6,16.4,29.76,WNW,284,0.0,0.0,80,0.00,,BKN110,0.00,VWS V14.01,2013-02-13 06:12:00,
2013-02-13 00:17:00,21.6,16.4,29.76,WNW,284,0.0,0.0,80,0.00,,BKN110,0.00,VWS V14.01,2013-02-13 06:17:00,
2013-02-13 00:22:00,21.8,16.6,29.76,WNW,284,0.0,0.0,80,0.00,,BKN110,0.00,VWS V14.01,2013-02-13 06:22:00,
2013-02-13 00:27:00,21.8,16.6,29.76,WNW,284,0.0,0.0,80,0.00,,BKN110,0.00,VWS V14.01,2013-02-13 06:27:00,
2013-02-13 00:37:00,21.9,16.7,29.76,WNW,284,1.0,1.0,80,0.00,,BKN110,0.00,VWS V14.01,2013-02-13 06:37:00,
2013-02-13 00:42:00,22.1,16.9,29.76,WNW,284,0.0,4.0,80,0.00,,BKN110,0.00,VWS V14.01,2013-02-13 06:42:00,
2013-02-13 00:47:00,22.1,16.9,29.75,WNW,284,0.0,3.0,80,0.00,,BKN110,0.00,VWS V14.01,2013-02-13 06:47:00,
2013-02-13 00:52:00,22.2,17.0,29.75,WNW,284,0.0,2.0,80,0.00,,BKN110,0.00,VWS V14.01,2013-02-13 06:52:00,
2013-02-13 00:57:00,22.4,17.2,29.75,WNW,284,2.0,3.0,80,0.00,,BKN110,0.00,VWS V14.01,2013-02-13 06:57:00,
2013-02-13 01:02:00,22.4,17.2,29.75,WNW,284,1.0,3.0,80,0.00,,OVC090,0.00,VWS V14.01,2013-02-13 07:02:00,
2013-02-13 01:07:00,22.4,17.2,29.75,WNW,283,2.0,4.0,80,0.00,,OVC090,0.00,VWS V14.01,2013-02-13 07:07:00,
2013-02-13 01:12:00,22.2,17.0,29.75,WNW,283,0.0,2.0,80,0.00,,OVC090,0.00,VWS V14.01,2013-02-13 07:12:00,
2013-02-13 01:22:00,22.1,16.9,29.74,WNW,283,1.0,2.0,80,0.00,,OVC090,0.00,VWS V14.01,2013-02-13 07:22:00,
2013-02-13 01:27:00,21.9,16.7,29.74,WNW,283,0.0,2.0,80,0.00,,OVC090,0.00,VWS V14.01,2013-02-13 07:27:00,
2013-02-13 01:32:00,21.6,16.4,29.74,WNW,283,0.0,0.0,80,0.00,,OVC090,0.00,VWS V14.01,2013-02-13 07:32:00,
2013-02-13 01:37:00,21.4,16.2,29.74,WNW,283,0.0,0.0,80,0.00,,OVC090,0.00,VWS V14.01,2013-02-13 07:37:00,
2013-02-13 01:47:00,21.1,15.9,29.74,WNW,283,0.0,0.0,80,0.00,,OVC090,0.00,VWS V14.01,2013-02-13 07:47:00,
2013-02-13 01:52:00,21.1,15.9,29.74,WNW,283,0.0,0.0,80,0.00,,OVC090,0.00,VWS V14.01,2013-02-13 07:52:00,
2013-02-13 01:57:00,21.1,15.9,29.74,WNW,283,0.0,0.0,80,0.00,,OVC090,0.00,VWS V14.01,2013-02-13 07:57:00,
2013-02-13 02:02:00,21.1,15.9,29.74,WNW,283,0.0,0.0,80,0.00,,BKN090,0.00,VWS V14.01,2013-02-13 08:02:00,
2013-02-13 02:07:00,21.3,16.4,29.74,WNW,283,0.0,0.0,81,0.00,,BKN090,0.00,VWS V14.01,2013-02-13 08:07:00,
2013-02-13 02:12:00,21.4,16.5,29.74,WNW,283,0.0,0.0,81,0.00,,BKN090,0.00,VWS V14.01,2013-02-13 08:12:00,
2013-02-13 02:17:00,21.6,16.7,29.73,WNW,283,0.0,0.0,81,0.00,,BKN090,0.00,VWS V14.01,2013-02-13 08:17:00,
2013-02-13 02:22:00,21.8,16.9,29.73,WNW,283,0.0,1.0,81,0.00,,BKN090,0.00,VWS V14.01,2013-02-13 08:22:00,
2013-02-13 02:27:00,21.8,16.9,29.73,WNW,283,0.0,0.0,81,0.00,,BKN090,0.00,VWS V14.01,2013-02-13 08:27:00,
2013-02-13 02:32:00,21.9,17.0,29.73,WNW,283,0.0,0.0,81,0.00,,BKN090,0.00,VWS V14.01,2013-02-13 08:32:00,
2013-02-13 02:37:00,22.1,17.2,29.73,WNW,283,0.0,1.0,81,0.00,,BKN090,0.00,VWS V14.01,2013-02-13 08:37:00,
2013-02-13 02:42:00,22.2,17.3,29.73,WNW,283,0.0,2.0,81,0.00,,BKN090,0.00,VWS V14.01,2013-02-13 08:42:00,
2013-02-13 02:52:00,22.4,17.5,29.73,WNW,283,0.0,0.0,81,0.00,,BKN090,0.00,VWS V14.01,2013-02-13 08:52:00,
2013-02-13 02:57:00,22.5,17.6,29.73,WNW,283,0.0,3.0,81,0.00,,BKN090,0.00,VWS V14.01,2013-02-13 08:57:00,
2013-02-13 03:02:00,22.5,17.6,29.73,WNW,283,0.0,2.0,81,0.00,,OVC090,0.00,VWS V14.01,2013-02-13 09:02:00,
2013-02-13 03:12:00,22.7,17.8,29.73,WNW,283,0.0,2.0,81,0.00,,OVC090,0.00,VWS V14.01,2013-02-13 09:12:00,
2013-02-13 03:17:00,22.7,17.8,29.72,WNW,283,0.0,0.0,81,0.00,,OVC090,0.00,VWS V14.01,2013-02-13 09:17:00,
2013-02-13 03:22:00,22.7,17.8,29.72,WNW,283,0.0,0.0,81,0.00,,OVC090,0.00,VWS V14.01,2013-02-13 09:22:00,
2013-02-13 03:27:00,22.9,18.0,29.72,WNW,283,0.0,0.0,81,0.00,,OVC090,0.00,VWS V14.01,2013-02-13 09:27:00,
2013-02-13 03:32:00,22.9,18.0,29.71,WNW,283,0.0,0.0,81,0.00,,OVC090,0.00,VWS V14.01,2013-02-13 09:32:00,
2013-02-13 03:42:00,22.9,18.0,29.71,WNW,283,2.0,2.0,81,0.00,,OVC090,0.00,VWS V14.01,2013-02-13 09:42:00,
2013-02-13 03:47:00,22.9,18.0,29.72,West,281,1.0,2.0,81,0.00,,OVC090,0.00,VWS V14.01,2013-02-13 09:47:00,
2013-02-13 03:52:00,22.9,18.0,29.72,West,281,0.0,1.0,81,0.00,,OVC090,0.00,VWS V14.01,2013-02-13 09:52:00,
2013-02-13 04:02:00,22.7,17.8,29.71,West,281,0.0,2.0,81,0.00,,OVC090,0.00,VWS V14.01,2013-02-13 10:02:00,
2013-02-13 04:07:00,22.5,17.6,29.71,West,281,0.0,2.0,81,0.00,,OVC090,0.00,VWS V14.01,2013-02-13 10:07:00,
2013-02-13 04:17:00,22.2,17.3,29.72,West,281,0.0,3.0,81,0.00,,OVC090,0.00,VWS V14.01,2013-02-13 10:17:00,
2013-02-13 04:22:00,22.1,17.2,29.72,West,281,0.0,0.0,81,0.00,,OVC090,0.00,VWS V14.01,2013-02-13 10:22:00,
2013-02-13 04:32:00,21.8,16.9,29.72,West,281,0.0,2.0,81,0.00,,OVC090,0.00,VWS V14.01,2013-02-13 10:32:00,
2013-02-13 04:37:00,21.6,16.7,29.72,West,279,0.0,2.0,81,0.00,,OVC090,0.00,VWS V14.01,2013-02-13 10:37:00,
2013-02-13 04:42:00,21.6,16.7,29.72,West,279,0.0,2.0,81,0.00,,OVC090,0.00,VWS V14.01,2013-02-13 10:42:00,
2013-02-13 04:47:00,21.4,16.5,29.71,West,279,0.0,2.0,81,0.00,,OVC090,0.00,VWS V14.01,2013-02-13 10:47:00,
2013-02-13 04:52:00,21.3,16.4,29.71,West,279,0.0,0.0,81,0.00,,OVC090,0.00,VWS V14.01,2013-02-13 10:52:00,
2013-02-13 04:57:00,21.1,16.2,29.71,West,279,0.0,0.0,81,0.00,,OVC090,0.00,VWS V14.01,2013-02-13 10:57:00,
2013-02-13 05:07:00,21.0,16.4,29.70,West,279,0.0,0.0,82,0.00,,CLR,0.00,VWS V14.01,2013-02-13 11:07:00,
2013-02-13 05:12:00,21.0,16.4,29.70,West,279,0.0,0.0,82,0.00,,CLR,0.00,VWS V14.01,2013-02-13 11:12:00,
2013-02-13 05:22:00,21.1,16.5,29.72,West,278,0.0,3.0,82,0.00,,CLR,0.00,VWS V14.01,2013-02-13 11:22:00,
2013-02-13 05:32:00,21.4,17.0,29.72,West,278,2.0,4.0,83,0.00,,CLR,0.00,VWS V14.01,2013-02-13 11:32:00,
2013-02-13 05:37:00,21.4,17.0,29.72,West,278,0.0,2.0,83,0.00,,CLR,0.00,VWS V14.01,2013-02-13 11:37:00,
2013-02-13 05:42:00,21.6,17.2,29.72,West,278,1.0,2.0,83,0.00,,CLR,0.00,VWS V14.01,2013-02-13 11:42:00,
2013-02-13 05:47:00,21.8,17.4,29.70,West,278,0.0,1.0,83,0.00,,CLR,0.00,VWS V14.01,2013-02-13 11:47:00,
2013-02-13 05:52:00,21.9,17.5,29.70,West,277,0.0,0.0,83,0.00,,CLR,0.00,VWS V14.01,2013-02-13 11:52:00,
2013-02-13 06:02:00,22.1,17.7,29.70,West,277,0.0,0.0,83,0.00,,OVC090,0.00,VWS V14.01,2013-02-13 12:02:00,
2013-02-13 06:07:00,22.2,17.8,29.70,West,277,0.0,0.0,83,0.00,,OVC090,0.00,VWS V14.01,2013-02-13 12:07:00,
2013-02-13 06:12:00,22.2,17.8,29.70,West,277,0.0,0.0,83,0.00,,OVC090,0.00,VWS V14.01,2013-02-13 12:12:00,
2013-02-13 06:22:00,22.4,18.0,29.70,West,277,0.0,0.0,83,0.00,,OVC090,0.00,VWS V14.01,2013-02-13 12:22:00,
2013-02-13 06:27:00,22.4,18.0,29.70,West,277,0.0,0.0,83,0.00,,OVC090,0.00,VWS V14.01,2013-02-13 12:27:00,
2013-02-13 06:37:00,22.4,18.0,29.69,West,277,0.0,0.0,83,0.00,,OVC090,0.00,VWS V14.01,2013-02-13 12:37:00,
2013-02-13 06:42:00,22.4,18.0,29.69,West,277,0.0,0.0,83,0.00,,OVC090,0.00,VWS V14.01,2013-02-13 12:42:00,
2013-02-13 06:47:00,22.4,18.0,29.69,West,277,0.0,0.0,83,0.00,,OVC090,0.00,VWS V14.01,2013-02-13 12:47:00,
2013-02-13 06:52:00,22.2,17.8,29.69,West,277,0.0,0.0,83,0.00,,OVC090,0.00,VWS V14.01,2013-02-13 12:52:00,
2013-02-13 06:57:00,22.2,17.8,29.69,West,277,0.0,0.0,83,0.00,,OVC090,0.00,VWS V14.01,2013-02-13 12:57:00,
2013-02-13 07:02:00,22.1,17.7,29.68,West,277,0.0,0.0,83,0.00,,OVC090,0.00,VWS V14.01,2013-02-13 13:02:00,
2013-02-13 07:12:00,21.9,17.5,29.68,West,277,0.0,0.0,83,0.00,,OVC090,0.00,VWS V14.01,2013-02-13 13:12:00,
2013-02-13 07:17:00,21.9,17.5,29.69,West,277,0.0,0.0,83,0.00,,OVC090,0.00,VWS V14.01,2013-02-13 13:17:00,
2013-02-13 07:27:00,21.9,17.5,29.69,West,276,0.0,3.0,83,0.00,,OVC090,0.00,VWS V14.01,2013-02-13 13:27:00,
2013-02-13 07:32:00,22.1,17.7,29.69,West,276,0.0,0.0,83,0.00,,OVC090,0.00,VWS V14.01,2013-02-13 13:32:00,
2013-02-13 07:42:00,22.1,17.7,29.69,West,275,0.0,2.0,83,0.00,,OVC090,0.00,VWS V14.01,2013-02-13 13:42:00,
2013-02-13 07:47:00,22.1,17.7,29.69,West,275,0.0,1.0,83,0.00,,OVC090,0.00,VWS V14.01,2013-02-13 13:47:00,
2013-02-13 07:52:00,21.9,17.5,29.69,West,275,0.0,0.0,83,0.00,,OVC090,0.00,VWS V14.01,2013-02-13 13:52:00,
2013-02-13 07:57:00,21.9,17.5,29.69,West,275,0.0,0.0,83,0.00,,OVC090,0.00,VWS V14.01,2013-02-13 13:57:00,
2013-02-13 08:02:00,21.9,17.5,29.69,West,275,0.0,0.0,83,0.00,,OVC085,0.00,VWS V14.01,2013-02-13 14:02:00,
2013-02-13 08:12:00,22.1,17.7,29.69,WSW,239,0.0,0.0,83,0.00,,OVC085,0.00,VWS V14.01,2013-02-13 14:12:00,
2013-02-13 08:22:00,22.2,17.8,29.69,WSW,238,0.0,0.0,83,0.00,,OVC085,0.00,VWS V14.01,2013-02-13 14:22:00,
2013-02-13 08:27:00,22.2,17.8,29.69,WSW,238,0.0,0.0,83,0.00,,OVC085,0.00,VWS V14.01,2013-02-13 14:27:00,
2013-02-13 08:32:00,22.4,18.0,29.69,WSW,238,0.0,0.0,83,0.00,,OVC085,0.00,VWS V14.01,2013-02-13 14:32:00,
2013-02-13 08:42:00,22.5,18.1,29.69,SW,224,0.0,4.0,83,0.00,,OVC085,0.00,VWS V14.01,2013-02-13 14:42:00,
2013-02-13 08:47:00,22.7,18.3,29.69,SW,224,0.0,3.0,83,0.00,,OVC085,0.00,VWS V14.01,2013-02-13 14:47:00,
2013-02-13 08:52:00,22.9,18.2,29.69,SSW,192,0.0,2.0,82,0.00,,OVC085,0.00,VWS V14.01,2013-02-13 14:52:00,
2013-02-13 09:02:00,23.2,18.5,29.68,SW,214,1.0,3.0,82,0.00,,OVC080,0.00,VWS V14.01,2013-02-13 15:02:00,
2013-02-13 09:07:00,23.3,18.3,29.68,South,178,3.0,5.0,81,0.00,,OVC080,0.00,VWS V14.01,2013-02-13 15:07:00,
2013-02-13 09:12:00,23.5,18.5,29.68,SW,228,2.0,4.0,81,0.00,,OVC080,0.00,VWS V14.01,2013-02-13 15:12:00,
2013-02-13 09:22:00,23.8,18.5,29.68,South,178,4.0,6.0,80,0.00,,OVC080,0.00,VWS V14.01,2013-02-13 15:22:00,
2013-02-13 09:27:00,23.9,18.6,29.68,SSW,211,0.0,7.0,80,0.00,,OVC080,0.00,VWS V14.01,2013-02-13 15:27:00,
2013-02-13 09:37:00,24.4,19.1,29.67,SW,218,0.0,4.0,80,0.00,,OVC080,0.00,VWS V14.01,2013-02-13 15:37:00,
2013-02-13 09:42:00,24.5,18.9,29.67,SW,222,0.0,4.0,79,0.00,,OVC080,0.00,VWS V14.01,2013-02-13 15:42:00,
2013-02-13 09:52:00,25.0,19.4,29.67,SW,233,6.0,8.0,79,0.00,,OVC080,0.00,VWS V14.01,2013-02-13 15:52:00,
2013-02-13 09:57:00,25.3,19.4,29.67,SW,230,3.0,7.0,78,0.00,,OVC080,0.00,VWS V14.01,2013-02-13 15:57:00,
2013-02-13 10:02:00,25.6,19.4,29.67,South,182,3.0,6.0,77,0.00,,OVC055,0.00,VWS V14.01,2013-02-13 16:02:00,
2013-02-13 10:07:00,25.7,19.5,29.67,SSW,205,2.0,5.0,77,0.00,,OVC055,0.00,VWS V14.01,2013-02-13 16:07:00,
2013-02-13 10:12:00,26.1,19.9,29.67,SW,233,1.0,5.0,77,0.00,,OVC055,0.00,VWS V14.01,2013-02-13 16:12:00,
2013-02-13 10:17:00,26.4,19.9,29.67,SW,235,4.0,4.0,76,0.00,,OVC055,0.00,VWS V14.01,2013-02-13 16:17:00,
2013-02-13 10:22:00,26.7,20.2,29.67,SSW,203,2.0,5.0,76,0.00,,OVC055,0.00,VWS V14.01,2013-02-13 16:22:00,
2013-02-13 10:32:00,27.5,20.6,29.67,SSW,213,2.0,5.0,75,0.00,,OVC055,0.00,VWS V14.01,2013-02-13 16:32:00,
2013-02-13 10:42:00,27.8,20.6,29.67,WSW,237,4.0,6.0,74,0.00,,OVC055,0.00,VWS V14.01,2013-02-13 16:42:00,
2013-02-13 10:47:00,28.1,20.9,29.67,SW,225,4.0,4.0,74,0.00,,OVC055,0.00,VWS V14.01,2013-02-13 16:47:00,
2013-02-13 10:52:00,28.7,21.5,29.67,WSW,246,1.0,6.0,74,0.00,,OVC055,0.00,VWS V14.01,2013-02-13 16:52:00,
2013-02-13 10:57:00,29.0,21.4,29.67,SW,232,1.0,6.0,73,0.00,,OVC055,0.00,VWS V14.01,2013-02-13 16:57:00,
2013-02-13 11:07:00,30.0,22.1,29.67,WSW,242,6.0,6.0,72,0.00,,OVC055,0.00,VWS V14.01,2013-02-13 17:07:00,
2013-02-13 11:17:00,31.5,22.2,29.67,SW,234,2.0,9.0,68,0.00,,OVC055,0.00,VWS V14.01,2013-02-13 17:17:00,
2013-02-13 11:27:00,31.8,22.5,29.67,WSW,238,7.0,7.0,68,0.00,,OVC055,0.00,VWS V14.01,2013-02-13 17:27:00,
2013-02-13 11:32:00,32.5,23.1,29.67,SW,233,1.0,8.0,68,0.00,,OVC055,0.00,VWS V14.01,2013-02-13 17:32:00,
2013-02-13 11:42:00,33.5,23.4,29.67,SW,234,0.0,9.0,66,0.00,,OVC055,0.00,VWS V14.01,2013-02-13 17:42:00,
2013-02-13 11:47:00,33.8,24.0,29.66,WSW,240,0.0,6.0,67,0.00,,OVC055,0.00,VWS V14.01,2013-02-13 17:47:00,
2013-02-13 11:52:00,35.0,24.1,29.66,SW,236,4.0,7.0,64,0.00,,OVC055,0.00,VWS V14.01,2013-02-13 17:52:00,
2013-02-13 12:02:00,36.3,24.9,29.64,SW,229,0.0,7.0,63,0.01,,SCT075,0.01,VWS V14.01,2013-02-13 18:02:00,
2013-02-13 12:12:00,36.5,24.7,29.64,SW,236,4.0,7.0,62,0.01,,SCT075,0.01,VWS V14.01,2013-02-13 18:12:00,
2013-02-13 12:22:00,36.8,25.0,29.64,SW,231,4.0,6.0,62,0.01,,SCT075,0.01,VWS V14.01,2013-02-13 18:22:00,
2013-02-13 12:27:00,37.0,25.2,29.64,WSW,246,3.0,5.0,62,0.02,,SCT075,0.02,VWS V14.01,2013-02-13 18:27:00,
2013-02-13 12:32:00,37.2,25.4,29.63,South,183,7.0,7.0,62,0.02,,SCT075,0.02,VWS V14.01,2013-02-13 18:32:00,
2013-02-13 12:42:00,37.6,25.4,29.63,SSW,192,3.0,7.0,61,0.03,,SCT075,0.03,VWS V14.01,2013-02-13 18:42:00,
2013-02-13 12:47:00,37.6,25.4,29.62,SSW,201,0.0,7.0,61,0.03,,SCT075,0.03,VWS V14.01,2013-02-13 18:47:00,
2013-02-13 12:52:00,37.9,26.1,29.62,SW,232,3.0,5.0,62,0.03,,SCT075,0.03,VWS V14.01,2013-02-13 18:52:00,
2013-02-13 13:02:00,38.0,25.4,29.61,South,177,2.0,11.0,60,0.03,,CLR,0.04,VWS V14.01,2013-02-13 19:02:00,
2013-02-13 13:07:00,38.0,25.4,29.61,South,176,3.0,10.0,60,0.03,,CLR,0.04,VWS V14.01,2013-02-13 19:07:00,
2013-02-13 13:12:00,38.3,25.6,29.61,SW,215,6.0,11.0,60,0.03,,CLR,0.04,VWS V14.01,2013-02-13 19:12:00,
2013-02-13 13:22:00,39.2,25.7,29.61,WSW,244,5.0,11.0,58,0.04,,CLR,0.05,VWS V14.01,2013-02-13 19:22:00,
2013-02-13 13:27:00,39.3,25.8,29.61,SSW,205,3.0,9.0,58,0.04,,CLR,0.05,VWS V14.01,2013-02-13 19:27:00,
2013-02-13 13:32:00,39.8,25.8,29.60,SSW,212,4.0,10.0,57,0.04,,CLR,0.06,VWS V14.01,2013-02-13 19:32:00,
2013-02-13 13:37:00,39.9,25.9,29.60,SW,229,4.0,9.0,57,0.04,,CLR,0.06,VWS V14.01,2013-02-13 19:37:00,
2013-02-13 13:47:00,39.6,26.1,29.59,SW,225,0.0,6.0,58,0.04,,CLR,0.07,VWS V14.01,2013-02-13 19:47:00,
2013-02-13 13:52:00,40.1,26.1,29.59,SW,227,1.0,4.0,57,0.04,,CLR,0.07,VWS V14.01,2013-02-13 19:52:00,
2013-02-13 13:57:00,40.5,26.5,29.59,South,188,2.0,5.0,57,0.05,,CLR,0.08,VWS V14.01,2013-02-13 19:57:00,
2013-02-13 14:02:00,40.6,26.1,29.59,SSW,196,3.0,5.0,56,0.05,,CLR,0.08,VWS V14.01,2013-02-13 20:02:00,
2013-02-13 14:07:00,40.8,26.8,29.59,SW,221,0.0,6.0,57,0.04,,CLR,0.08,VWS V14.01,2013-02-13 20:07:00,
2013-02-13 14:12:00,41.2,26.7,29.59,SW,227,4.0,7.0,56,0.05,,CLR,0.09,VWS V14.01,2013-02-13 20:12:00,
2013-02-13 14:17:00,41.2,26.7,29.58,SW,218,4.0,10.0,56,0.05,,CLR,0.09,VWS V14.01,2013-02-13 20:17:00,
2013-02-13 14:22:00,40.9,26.4,29.58,SW,236,4.0,11.0,56,0.04,,CLR,0.09,VWS V14.01,2013-02-13 20:22:00,
2013-02-13 14:27:00,40.3,26.3,29.58,SW,232,3.0,9.0,57,0.05,,CLR,0.10,VWS V14.01,2013-02-13 20:27:00,
2013-02-13 14:32:00,40.1,26.5,29.58,WSW,246,3.0,9.0,58,0.05,,CLR,0.10,VWS V14.01,2013-02-13 20:32:00,
2013-02-13 14:37:00,39.9,26.3,29.58,SW,226,4.0,9.0,58,0.04,,CLR,0.10,VWS V14.01,2013-02-13 20:37:00,
2013-02-13 14:42:00,39.8,26.7,29.58,WSW,242,6.0,10.0,59,0.05,,CLR,0.11,VWS V14.01,2013-02-13 20:42:00,
2013-02-13 14:52:00,39.6,26.9,29.58,SW,232,6.0,13.0,60,0.04,,CLR,0.11,VWS V14.01,2013-02-13 20:52:00,
2013-02-13 14:57:00,39.8,26.7,29.58,SW,233,2.0,10.0,59,0.05,,CLR,0.12,VWS V14.01,2013-02-13 20:57:00,
2013-02-13 15:02:00,39.8,26.7,29.58,SW,227,4.0,9.0,59,0.04,,SCT080,0.12,VWS V14.01,2013-02-13 21:02:00,
2013-02-13 15:07:00,39.6,26.5,29.58,West,274,5.0,9.0,59,0.04,,SCT080,0.12,VWS V14.01,2013-02-13 21:07:00,
2013-02-13 15:12:00,39.5,26.8,29.58,WSW,242,7.0,10.0,60,0.04,,SCT080,0.12,VWS V14.01,2013-02-13 21:12:00,
2013-02-13 15:22:00,39.1,26.8,29.58,SW,229,0.0,6.0,61,0.04,,SCT080,0.13,VWS V14.01,2013-02-13 21:22:00,
2013-02-13 15:27:00,39.1,27.2,29.58,WSW,241,3.0,6.0,62,0.04,,SCT080,0.13,VWS V14.01,2013-02-13 21:27:00,
2013-02-13 15:32:00,38.8,26.9,29.59,WSW,242,2.0,7.0,62,0.03,,SCT080,0.13,VWS V14.01,2013-02-13 21:32:00,
2013-02-13 15:42:00,38.3,26.8,29.59,SW,230,5.0,6.0,63,0.03,,SCT080,0.13,VWS V14.01,2013-02-13 21:42:00,
2013-02-13 15:47:00,38.0,26.5,29.59,WSW,247,7.0,9.0,63,0.02,,SCT080,0.13,VWS V14.01,2013-02-13 21:47:00,
2013-02-13 15:52:00,37.9,26.8,29.59,SW,236,3.0,10.0,64,0.03,,SCT080,0.14,VWS V14.01,2013-02-13 21:52:00,
2013-02-13 15:57:00,37.6,26.5,29.59,SW,227,1.0,10.0,64,0.03,,SCT080,0.14,VWS V14.01,2013-02-13 21:57:00,
2013-02-13 16:02:00,37.3,26.6,29.59,SW,234,3.0,6.0,65,0.02,,OVC070,0.14,VWS V14.01,2013-02-13 22:02:00,
2013-02-13 16:07:00,37.2,26.9,29.59,SW,232,1.0,5.0,66,0.02,,OVC070,0.14,VWS V14.01,2013-02-13 22:07:00,
2013-02-13 16:12:00,37.0,26.7,29.59,WSW,244,3.0,6.0,66,0.02,,OVC070,0.14,VWS V14.01,2013-02-13 22:12:00,
2013-02-13 16:17:00,36.9,26.6,29.59,SW,234,2.0,6.0,66,0.02,,OVC070,0.14,VWS V14.01,2013-02-13 22:17:00,
2013-02-13 16:22:00,36.9,27.0,29.59,WSW,241,0.0,3.0,67,0.01,,OVC070,0.14,VWS V14.01,2013-02-13 22:22:00,
2013-02-13 16:32:00,36.6,27.0,29.59,WSW,237,0.0,3.0,68,0.02,,OVC070,0.15,VWS V14.01,2013-02-13 22:32:00,
2013-02-13 16:37:00,36.5,27.0,29.59,West,265,0.0,5.0,68,0.02,,OVC070,0.15,VWS V14.01,2013-02-13 22:37:00,
2013-02-13 16:42:00,36.5,27.3,29.59,SW,227,0.0,4.0,69,0.02,,OVC070,0.15,VWS V14.01,2013-02-13 22:42:00,
2013-02-13 16:47:00,36.3,27.5,29.59,WSW,243,0.0,3.0,70,0.02,,OVC070,0.15,VWS V14.01,2013-02-13 22:47:00,
2013-02-13 16:52:00,36.2,27.7,29.59,WSW,247,2.0,3.0,71,0.02,,OVC070,0.15,VWS V14.01,2013-02-13 22:52:00,
2013-02-13 16:57:00,36.0,27.9,29.59,WSW,243,0.0,6.0,72,0.01,,OVC070,0.15,VWS V14.01,2013-02-13 22:57:00,
2013-02-13 17:02:00,35.9,28.4,29.59,WSW,239,2.0,2.0,74,0.01,,OVC050,0.15,VWS V14.01,2013-02-13 23:02:00,
2013-02-13 17:12:00,35.6,28.5,29.59,WSW,246,0.0,0.0,75,0.01,,OVC050,0.15,VWS V14.01,2013-02-13 23:12:00,
2013-02-13 17:17:00,35.5,28.7,29.58,WSW,246,0.0,0.0,76,0.01,,OVC050,0.15,VWS V14.01,2013-02-13 23:17:00,
2013-02-13 17:22:00,35.5,29.0,29.58,WSW,246,0.0,2.0,77,0.01,,OVC050,0.15,VWS V14.01,2013-02-13 23:22:00,
2013-02-13 17:27:00,35.3,28.8,29.58,WSW,246,0.0,0.0,77,0.01,,OVC050,0.15,VWS V14.01,2013-02-13 23:27:00,
2013-02-13 17:37:00,35.0,28.9,29.58,WSW,246,0.0,0.0,78,0.00,,OVC050,0.15,VWS V14.01,2013-02-13 23:37:00,
2013-02-13 17:42:00,34.9,28.8,29.58,WSW,246,0.0,0.0,78,0.00,,OVC050,0.15,VWS V14.01,2013-02-13 23:42:00,
2013-02-13 17:47:00,34.7,28.9,29.58,WSW,246,0.0,0.0,79,0.00,,OVC050,0.15,VWS V14.01,2013-02-13 23:47:00,
2013-02-13 17:52:00,34.6,29.1,29.58,WSW,246,0.0,0.0,80,0.00,,OVC050,0.15,VWS V14.01,2013-02-13 23:52:00,
2013-02-13 17:57:00,34.4,29.2,29.58,WSW,246,0.0,0.0,81,0.00,,OVC050,0.15,VWS V14.01,2013-02-13 23:57:00,
2013-02-13 18:02:00,34.3,29.4,29.57,WSW,246,0.0,0.0,82,0.00,,OVC060,0.15,VWS V14.01,2013-02-14 00:02:00,
2013-02-13 18:12:00,34.1,29.5,29.57,WSW,246,0.0,0.0,83,0.01,,OVC060,0.16,VWS V14.01,2013-02-14 00:12:00,
2013-02-13 18:22:00,33.8,29.5,29.57,WSW,246,0.0,0.0,84,0.01,,OVC060,0.16,VWS V14.01,2013-02-14 00:22:00,
2013-02-13 18:27:00,33.8,29.5,29.57,WSW,246,0.0,0.0,84,0.01,,OVC060,0.16,VWS V14.01,2013-02-14 00:27:00,
2013-02-13 18:32:00,33.7,29.7,29.57,WSW,246,0.0,0.0,85,0.01,,,0.16,VWS V14.01,2013-02-14 00:32:00,
2013-02-13 18:37:00,33.7,29.7,29.57,WSW,246,0.0,0.0,85,0.01,,,0.16,VWS V14.01,2013-02-14 00:37:00,
2013-02-13 18:42:00,33.5,29.8,29.57,WSW,246,0.0,0.0,86,0.01,,,0.16,VWS V14.01,2013-02-14 00:42:00,
2013-02-13 18:47:00,33.5,29.8,29.57,WSW,246,0.0,0.0,86,0.01,,,0.16,VWS V14.01,2013-02-14 00:47:00,
2013-02-13 18:57:00,33.4,29.7,29.57,WSW,246,0.0,0.0,86,0.01,,,0.16,VWS V14.01,2013-02-14 00:57:00,
2013-02-13 19:02:00,33.4,29.7,29.57,WSW,246,0.0,0.0,86,0.01,,,0.16,VWS V14.01,2013-02-14 01:02:00,
2013-02-13 19:07:00,33.2,29.8,29.57,WSW,246,0.0,0.0,87,0.01,,,0.16,VWS V14.01,2013-02-14 01:07:00,
2013-02-13 19:17:00,33.2,29.8,29.56,WSW,246,0.0,0.0,87,0.00,,,0.16,VWS V14.01,2013-02-14 01:17:00,
2013-02-13 19:22:00,33.1,29.7,29.56,WSW,246,0.0,0.0,87,0.00,,,0.16,VWS V14.01,2013-02-14 01:22:00,
2013-02-13 19:27:00,33.1,29.9,29.56,WSW,246,0.0,0.0,88,0.00,,,0.16,VWS V14.01,2013-02-14 01:27:00,
2013-02-13 19:32:00,33.1,29.9,29.56,WSW,242,0.0,0.0,88,0.00,,,0.16,VWS V14.01,2013-02-14 01:32:00,
2013-02-13 19:37:00,33.1,29.9,29.56,WSW,242,0.0,0.0,88,0.00,,,0.16,VWS V14.01,2013-02-14 01:37:00,
2013-02-13 19:42:00,33.1,29.9,29.56,WSW,242,0.0,0.0,88,0.00,,,0.16,VWS V14.01,2013-02-14 01:42:00,
2013-02-13 19:47:00,33.1,30.2,29.55,WSW,242,0.0,0.0,89,0.00,,,0.16,VWS V14.01,2013-02-14 01:47:00,
2013-02-13 19:52:00,33.1,30.2,29.55,WSW,242,0.0,0.0,89,0.00,,,0.16,VWS V14.01,2013-02-14 01:52:00,
2013-02-13 19:57:00,33.1,30.2,29.55,SE,145,0.0,0.0,89,0.00,,,0.16,VWS V14.01,2013-02-14 01:57:00,
2013-02-13 20:07:00,32.9,30.0,29.55,SE,145,0.0,0.0,89,0.00,,,0.16,VWS V14.01,2013-02-14 02:07:00,
2013-02-13 20:12:00,32.9,30.0,29.55,SE,145,0.0,0.0,89,0.00,,,0.16,VWS V14.01,2013-02-14 02:12:00,
2013-02-13 20:17:00,32.9,30.0,29.54,SE,145,0.0,0.0,89,0.00,,,0.16,VWS V14.01,2013-02-14 02:17:00,
2013-02-13 20:22:00,32.9,30.0,29.54,SE,142,0.0,2.0,89,0.00,,,0.16,VWS V14.01,2013-02-14 02:22:00,
2013-02-13 20:27:00,32.9,30.0,29.54,SE,142,0.0,0.0,89,0.00,,,0.16,VWS V14.01,2013-02-14 02:27:00,
2013-02-13 20:37:00,32.9,30.3,29.53,SE,142,0.0,0.0,90,0.00,,,0.16,VWS V14.01,2013-02-14 02:37:00,
2013-02-13 20:42:00,32.9,30.3,29.53,SE,139,0.0,0.0,90,0.00,,,0.16,VWS V14.01,2013-02-14 02:42:00,
2013-02-13 20:47:00,32.9,30.3,29.53,SE,139,0.0,0.0,90,0.00,,,0.16,VWS V14.01,2013-02-14 02:47:00,
2013-02-13 20:52:00,32.9,30.3,29.53,SE,139,1.0,2.0,90,0.00,,,0.16,VWS V14.01,2013-02-14 02:52:00,
2013-02-13 20:57:00,32.9,30.3,29.53,SE,139,0.0,1.0,90,0.00,,,0.16,VWS V14.01,2013-02-14 02:57:00,
2013-02-13 21:02:00,32.9,30.3,29.52,SE,139,0.0,0.0,90,0.00,,,0.16,VWS V14.01,2013-02-14 03:02:00,
2013-02-13 21:07:00,32.9,30.3,29.52,SE,139,0.0,0.0,90,0.00,,,0.16,VWS V14.01,2013-02-14 03:07:00,
2013-02-13 21:17:00,32.8,30.5,29.52,SE,139,0.0,0.0,91,0.00,,,0.16,VWS V14.01,2013-02-14 03:17:00,
2013-02-13 21:22:00,32.8,30.5,29.52,SE,139,0.0,0.0,91,0.00,,,0.16,VWS V14.01,2013-02-14 03:22:00,
2013-02-13 21:27:00,32.8,30.5,29.52,SE,139,0.0,0.0,91,0.00,,,0.16,VWS V14.01,2013-02-14 03:27:00,
2013-02-13 21:32:00,32.8,30.5,29.52,SE,139,0.0,0.0,91,0.00,,,0.16,VWS V14.01,2013-02-14 03:32:00,
2013-02-13 21:37:00,32.8,30.5,29.52,SE,139,0.0,0.0,91,0.00,,,0.16,VWS V14.01,2013-02-14 03:37:00,
2013-02-13 21:42:00,32.8,30.5,29.52,SE,139,0.0,0.0,91,0.00,,,0.16,VWS V14.01,2013-02-14 03:42:00,
2013-02-13 21:52:00,32.8,30.5,29.52,SE,139,0.0,0.0,91,0.00,,,0.16,VWS V14.01,2013-02-14 03:52:00,
2013-02-13 21:57:00,32.8,30.5,29.52,SE,139,0.0,0.0,91,0.00,,,0.16,VWS V14.01,2013-02-14 03:57:00,
2013-02-13 22:02:00,32.8,30.5,29.52,SE,139,0.0,0.0,91,0.00,,,0.16,VWS V14.01,2013-02-14 04:02:00,
2013-02-13 22:07:00,32.8,30.5,29.52,SE,139,0.0,0.0,91,0.00,,,0.16,VWS V14.01,2013-02-14 04:07:00,
2013-02-13 22:17:00,32.8,30.7,29.51,SE,139,0.0,0.0,92,0.00,,,0.16,VWS V14.01,2013-02-14 04:17:00,
2013-02-13 22:27:00,32.8,30.7,29.51,SE,139,0.0,0.0,92,0.00,,,0.16,VWS V14.01,2013-02-14 04:27:00,
2013-02-13 22:32:00,32.8,30.7,29.51,SE,139,0.0,0.0,92,0.00,,,0.16,VWS V14.01,2013-02-14 04:32:00,
2013-02-13 22:37:00,32.8,30.7,29.51,SE,139,0.0,0.0,92,0.00,,,0.16,VWS V14.01,2013-02-14 04:37:00,
2013-02-13 22:42:00,32.8,30.7,29.51,SE,139,0.0,1.0,92,0.00,,,0.16,VWS V14.01,2013-02-14 04:42:00,
2013-02-13 22:47:00,32.8,30.7,29.51,SE,139,0.0,0.0,92,0.00,,,0.16,VWS V14.01,2013-02-14 04:47:00,
2013-02-13 22:52:00,32.8,30.7,29.51,SE,139,0.0,0.0,92,0.00,,,0.16,VWS V14.01,2013-02-14 04:52:00,
2013-02-13 22:57:00,32.8,30.7,29.51,ESE,115,0.0,0.0,92,0.00,,,0.16,VWS V14.01,2013-02-14 04:57:00,
2013-02-13 23:02:00,32.7,30.6,29.52,ESE,103,0.0,0.0,92,0.00,,,0.16,VWS V14.01,2013-02-14 05:02:00,
2013-02-13 23:07:00,32.7,30.6,29.52,East,88,0.0,0.0,92,0.00,,,0.16,VWS V14.01,2013-02-14 05:07:00,
2013-02-13 23:12:00,32.7,30.6,29.52,NNE,13,0.0,0.0,92,0.00,,,0.16,VWS V14.01,2013-02-14 05:12:00,
2013-02-13 23:17:00,32.7,30.6,29.52,NNE,14,0.0,0.0,92,0.00,,,0.16,VWS V14.01,2013-02-14 05:17:00,
2013-02-13 23:22:00,32.7,30.6,29.52,NNE,14,0.0,0.0,92,0.00,,,0.16,VWS V14.01,2013-02-14 05:22:00,
2013-02-13 23:27:00,32.7,30.6,29.52,NE,38,0.0,0.0,92,0.00,,,0.16,VWS V14.01,2013-02-14 05:27:00,
2013-02-13 23:32:00,32.7,30.6,29.52,NE,49,0.0,0.0,92,0.00,,,0.16,VWS V14.01,2013-02-14 05:32:00,
2013-02-13 23:37:00,32.5,30.4,29.52,NNE,26,0.0,0.0,92,0.00,,,0.16,VWS V14.01,2013-02-14 05:37:00,
2013-02-13 23:42:00,32.5,30.4,29.52,NNE,22,0.0,0.0,92,0.00,,,0.16,VWS V14.01,2013-02-14 05:42:00,
2013-02-13 23:52:00,32.5,30.4,29.53,North,5,0.0,0.0,92,0.00,,,0.16,VWS V14.01,2013-02-14 05:52:00,
2013-02-13 23:57:00,32.5,30.7,29.53,NNE,16,0.0,0.0,93,0.00,,,0.16,VWS V14.01,2013-02-14 05:57:00,